Location: ????????
(55.5667°N, 37.5833°E)
Time: 08:45:13
(UTC+00:00)

NOSS 2-1 (C) - Pass Details

Date: 14 April 2026
Orbit: 374 x 1679 km, 63.3° (Epoch: 9 May)

Event Time Altitude Azimuth Distance (km) Brightness Sun altitude
Rises 19:01:37 0° 305° (NW) 2,294 7.9 -17.9°
Reaches altitude 10° 19:03:32 10° 298° (WNW) 1,494 6.5 -18.0°
Maximum altitude 19:06:35 42° 226° (SW) 687 3.7 -18.3°
Enters shadow 19:07:15 37° 196° (SSW) 765 3.7 -18.4°
